TimeCST,TemperatureF,Dew PointF,Humidity,Sea Level PressureIn,VisibilityMPH,Wind Direction,Wind SpeedMPH,Gust SpeedMPH,PrecipitationIn,Events,Conditions,WindDirDegrees,DateUTC
12:56 AM,26.1,18.1,72,30.35,10.0,SW,10.4,-,N/A,,Clear,230,2012-11-28 06:56:00
1:56 AM,25.2,18.1,75,30.37,10.0,SW,8.1,-,N/A,,Mostly Cloudy,230,2012-11-28 07:56:00
2:56 AM,27.1,18.1,69,30.37,10.0,SW,9.2,-,N/A,,Overcast,230,2012-11-28 08:56:00
3:56 AM,28.0,17.1,63,30.37,10.0,WSW,8.1,-,N/A,,Overcast,250,2012-11-28 09:56:00
4:56 AM,26.1,17.1,69,30.39,10.0,WSW,6.9,-,N/A,,Clear,250,2012-11-28 10:56:00
5:56 AM,24.1,17.1,75,30.41,10.0,West,5.8,-,N/A,,Clear,260,2012-11-28 11:56:00
6:56 AM,24.1,17.1,75,30.43,10.0,West,4.6,-,N/A,,Clear,270,2012-11-28 12:56:00
7:56 AM,25.2,19.0,78,30.44,10.0,WSW,3.5,-,N/A,,Clear,240,2012-11-28 13:56:00
8:56 AM,32.0,20.1,62,30.45,10.0,WNW,5.8,-,N/A,,Clear,300,2012-11-28 14:56:00
9:56 AM,36.0,19.0,50,30.46,10.0,Calm,Calm,-,N/A,,Clear,0,2012-11-28 15:56:00
10:56 AM,38.8,22.1,51,30.46,10.0,Variable,3.5,-,N/A,,Clear,0,2012-11-28 16:56:00
11:56 AM,41.9,24.1,49,30.45,10.0,West,6.9,-,N/A,,Clear,280,2012-11-28 17:56:00
12:56 PM,43.0,24.1,47,30.42,10.0,Variable,6.9,-,N/A,,Clear,0,2012-11-28 18:56:00
1:56 PM,43.9,24.1,46,30.40,10.0,SSW,3.5,-,N/A,,Clear,210,2012-11-28 19:56:00
2:56 PM,43.9,23.0,44,30.39,10.0,SSW,9.2,-,N/A,,Clear,210,2012-11-28 20:56:00
3:56 PM,41.9,23.0,47,30.39,10.0,SSW,8.1,-,N/A,,Clear,210,2012-11-28 21:56:00
4:56 PM,36.9,23.0,57,30.39,10.0,SSW,4.6,-,N/A,,Clear,210,2012-11-28 22:56:00
5:56 PM,32.0,21.0,64,30.40,10.0,SSW,6.9,-,N/A,,Clear,200,2012-11-28 23:56:00
6:56 PM,32.9,22.1,65,30.39,10.0,South,8.1,-,N/A,,Clear,170,2012-11-29 00:56:00
7:56 PM,29.1,22.1,75,30.39,10.0,South,10.4,-,N/A,,Clear,190,2012-11-29 01:56:00
8:56 PM,28.0,23.0,81,30.38,10.0,South,8.1,-,N/A,,Clear,190,2012-11-29 02:56:00
9:56 PM,28.0,23.0,81,30.36,10.0,South,9.2,-,N/A,,Clear,190,2012-11-29 03:56:00
10:56 PM,27.1,23.0,84,30.35,9.0,South,8.1,-,N/A,,Clear,180,2012-11-29 04:56:00
11:56 PM,29.1,25.2,85,30.34,9.0,South,8.1,-,N/A,,Clear,190,2012-11-29 05:56:00